User: anonymous   Login
Location: SAPM � Hemmingford
(45.0500°N, 73.5833°W)
Time: 18:21:25
(UTC-04:00)
Language:

Cosmos 1674 Rocket - Orbit

View from above orbital plane
View from above orbital plane
View from above satellite
View from above satellite

Ground track
Ground track

The orbit data is extracted from the following two-line orbital elements,

1 15945U 85069B   15184.14983961  .00000164  00000-0  16801-4 0  9993
2 15945 082.5283 082.5824 0021208 119.4231 240.9105 14.83719085614993
Epoch (UTC): 03 July 2015 03:35:46
Eccentricity: 0.0021208
inclination: 82.5283°
perigee height: 603 km
apogee height: 632 km
right ascension of ascending node: 82.5824°
argument of perigee: 119.4231°
revolutions per day: 14.83719085
mean anomaly at epoch: 240.9105°
orbit number at epoch: 61499

The dashed part of the orbit path shows where the satellite is in the earth's shadow,  

DLR